Time,TemperatureF,DewpointF,PressureIn,WindDirection,WindDirectionDegrees,WindSpeedMPH,WindSpeedGustMPH,Humidity,HourlyPrecipIn,Conditions,Clouds,dailyrainin,SoftwareType,DateUTC
2013-03-02 00:04:00,43.4,27.8,30.30,NW,313,7.0,7.0,54,0.00,,,0.00,Wunderground v.1.15,2013-03-02 06:04:00,
2013-03-02 00:09:00,43.2,28.1,30.30,NW,314,7.0,7.0,55,0.00,,,0.00,Wunderground v.1.15,2013-03-02 06:09:00,
2013-03-02 00:14:00,43.0,27.9,30.30,NW,314,6.0,6.0,55,0.00,,,0.00,Wunderground v.1.15,2013-03-02 06:14:00,
2013-03-02 00:19:00,42.9,27.8,30.30,WNW,303,6.0,6.0,55,0.00,,,0.00,Wunderground v.1.15,2013-03-02 06:19:00,
2013-03-02 00:29:00,43.0,28.4,30.30,WNW,303,6.0,6.0,56,0.00,,,0.00,Wunderground v.1.15,2013-03-02 06:29:00,
2013-03-02 00:34:00,43.0,28.4,30.30,WNW,300,6.0,6.0,56,0.00,,,0.00,Wunderground v.1.15,2013-03-02 06:34:00,
2013-03-02 00:39:00,43.0,28.4,30.30,WNW,299,6.0,7.0,56,0.00,,,0.00,Wunderground v.1.15,2013-03-02 06:39:00,
2013-03-02 00:44:00,43.1,28.5,30.30,WNW,298,6.0,6.0,56,0.00,,,0.00,Wunderground v.1.15,2013-03-02 06:44:00,
2013-03-02 00:49:00,43.1,28.5,30.31,WNW,299,6.0,6.0,56,0.00,,,0.00,Wunderground v.1.15,2013-03-02 06:49:00,
2013-03-02 00:54:00,43.0,28.8,30.31,NW,307,5.0,6.0,57,0.00,,,0.00,Wunderground v.1.15,2013-03-02 06:54:00,
2013-03-02 01:04:00,42.9,28.7,30.32,NW,313,5.0,9.0,57,0.00,,,0.00,Wunderground v.1.15,2013-03-02 07:04:00,
2013-03-02 01:09:00,42.7,28.9,30.32,NW,316,4.0,9.0,58,0.00,,,0.00,Wunderground v.1.15,2013-03-02 07:09:00,
2013-03-02 01:14:00,42.6,28.8,30.32,NW,307,4.0,9.0,58,0.00,,,0.00,Wunderground v.1.15,2013-03-02 07:14:00,
2013-03-02 01:19:00,42.7,28.9,30.32,NW,305,4.0,9.0,58,0.00,,,0.00,Wunderground v.1.15,2013-03-02 07:19:00,
2013-03-02 01:24:00,42.7,28.9,30.32,NW,312,5.0,5.0,58,0.00,,,0.00,Wunderground v.1.15,2013-03-02 07:24:00,
2013-03-02 01:34:00,42.5,28.8,30.32,WNW,300,5.0,9.0,58,0.00,,,0.00,Wunderground v.1.15,2013-03-02 07:34:00,
2013-03-02 01:39:00,42.2,28.9,30.32,WNW,295,5.0,9.0,59,0.00,,,0.00,Wunderground v.1.15,2013-03-02 07:39:00,
2013-03-02 01:44:00,42.0,28.7,30.32,WNW,290,5.0,9.0,59,0.00,,,0.00,Wunderground v.1.15,2013-03-02 07:44:00,
2013-03-02 01:49:00,41.8,28.5,30.32,WNW,294,5.0,9.0,59,0.00,,,0.00,Wunderground v.1.15,2013-03-02 07:49:00,
2013-03-02 01:54:00,41.5,28.6,30.33,WNW,291,5.0,9.0,60,0.00,,,0.00,Wunderground v.1.15,2013-03-02 07:54:00,
2013-03-02 01:59:00,41.4,28.5,30.33,WNW,286,5.0,9.0,60,0.00,,,0.00,Wunderground v.1.15,2013-03-02 07:59:00,
2013-03-02 02:04:00,41.5,28.6,30.32,WNW,286,5.0,5.0,60,0.00,,,0.00,Wunderground v.1.15,2013-03-02 08:04:00,
2013-03-02 02:09:00,41.3,28.9,30.33,WNW,286,4.0,9.0,61,0.00,,,0.00,Wunderground v.1.15,2013-03-02 08:09:00,
2013-03-02 02:14:00,41.1,28.7,30.33,WNW,286,4.0,9.0,61,0.00,,,0.00,Wunderground v.1.15,2013-03-02 08:14:00,
2013-03-02 02:19:00,40.9,28.5,30.33,WNW,286,4.0,9.0,61,0.00,,,0.00,Wunderground v.1.15,2013-03-02 08:19:00,
2013-03-02 02:24:00,40.7,28.3,30.33,West,281,5.0,9.0,61,0.00,,,0.00,Wunderground v.1.15,2013-03-02 08:24:00,
2013-03-02 02:29:00,40.7,28.7,30.33,West,278,5.0,9.0,62,0.00,,,0.00,Wunderground v.1.15,2013-03-02 08:29:00,
2013-03-02 02:39:00,40.3,28.3,30.33,WNW,294,6.0,9.0,62,0.00,,,0.00,Wunderground v.1.15,2013-03-02 08:39:00,
2013-03-02 02:44:00,40.0,28.0,30.33,WNW,294,6.0,9.0,62,0.00,,,0.00,Wunderground v.1.15,2013-03-02 08:44:00,
2013-03-02 02:49:00,39.8,28.2,30.32,WNW,295,6.0,9.0,63,0.00,,,0.00,Wunderground v.1.15,2013-03-02 08:49:00,
2013-03-02 02:54:00,39.7,28.1,30.33,WNW,292,5.0,9.0,63,0.00,,,0.00,Wunderground v.1.15,2013-03-02 08:54:00,
2013-03-02 02:59:00,39.6,28.4,30.33,WNW,289,5.0,9.0,64,0.00,,,0.00,Wunderground v.1.15,2013-03-02 08:59:00,
2013-03-02 03:09:00,39.5,28.3,30.33,WNW,291,6.0,9.0,64,0.00,,,0.00,Wunderground v.1.15,2013-03-02 09:09:00,
2013-03-02 03:14:00,39.5,28.3,30.33,WNW,298,6.0,9.0,64,0.00,,,0.00,Wunderground v.1.15,2013-03-02 09:14:00,
2013-03-02 03:19:00,39.2,28.0,30.33,WNW,286,6.0,9.0,64,0.00,,,0.00,Wunderground v.1.15,2013-03-02 09:19:00,
2013-03-02 03:24:00,39.2,28.4,30.33,West,274,6.0,9.0,65,0.00,,,0.00,Wunderground v.1.15,2013-03-02 09:24:00,
2013-03-02 03:29:00,39.1,28.3,30.33,West,272,6.0,9.0,65,0.00,,,0.00,Wunderground v.1.15,2013-03-02 09:29:00,
2013-03-02 03:34:00,39.1,28.3,30.33,West,272,7.0,9.0,65,0.00,,,0.00,Wunderground v.1.15,2013-03-02 09:34:00,
2013-03-02 03:44:00,38.3,28.3,30.34,West,267,7.0,9.0,67,0.00,,,0.00,Wunderground v.1.15,2013-03-02 09:44:00,
2013-03-02 03:49:00,37.9,27.9,30.33,West,267,7.0,9.0,67,0.00,,,0.00,Wunderground v.1.15,2013-03-02 09:49:00,
2013-03-02 03:54:00,37.9,28.3,30.34,West,271,7.0,7.0,68,0.00,,,0.00,Wunderground v.1.15,2013-03-02 09:54:00,
2013-03-02 03:59:00,37.8,28.2,30.34,West,271,6.0,9.0,68,0.00,,,0.00,Wunderground v.1.15,2013-03-02 09:59:00,
2013-03-02 04:04:00,37.6,28.0,30.34,West,271,6.0,9.0,68,0.00,,,0.00,Wunderground v.1.15,2013-03-02 10:04:00,
2013-03-02 04:14:00,37.5,28.2,30.35,West,272,8.0,9.0,69,0.00,,,0.00,Wunderground v.1.15,2013-03-02 10:14:00,
2013-03-02 04:19:00,37.4,28.2,30.35,West,275,8.0,9.0,69,0.00,,,0.00,Wunderground v.1.15,2013-03-02 10:19:00,
2013-03-02 04:24:00,37.2,28.0,30.35,West,272,8.0,8.0,69,0.00,,,0.00,Wunderground v.1.15,2013-03-02 10:24:00,
2013-03-02 04:29:00,37.0,28.1,30.35,West,275,8.0,9.0,70,0.00,,,0.00,Wunderground v.1.15,2013-03-02 10:29:00,
2013-03-02 04:34:00,37.0,28.1,30.36,West,281,8.0,8.0,70,0.00,,,0.00,Wunderground v.1.15,2013-03-02 10:34:00,
2013-03-02 04:39:00,37.1,28.2,30.35,WNW,287,7.0,9.0,70,0.00,,,0.00,Wunderground v.1.15,2013-03-02 10:39:00,
2013-03-02 04:49:00,36.5,27.6,30.36,WNW,299,7.0,9.0,70,0.00,,,0.00,Wunderground v.1.15,2013-03-02 10:49:00,
2013-03-02 04:54:00,36.3,27.8,30.35,NW,305,7.0,9.0,71,0.00,,,0.00,Wunderground v.1.15,2013-03-02 10:54:00,
2013-03-02 04:59:00,36.6,27.7,30.35,NW,317,7.0,9.0,70,0.00,,,0.00,Wunderground v.1.15,2013-03-02 10:59:00,
2013-03-02 05:04:00,36.6,27.4,30.35,NW,317,8.0,9.0,69,0.00,,,0.00,Wunderground v.1.15,2013-03-02 11:04:00,
2013-03-02 05:09:00,36.6,27.7,30.35,NW,316,8.0,9.0,70,0.00,,,0.00,Wunderground v.1.15,2013-03-02 11:09:00,
2013-03-02 05:19:00,36.5,27.6,30.36,NW,307,8.0,9.0,70,0.00,,,0.00,Wunderground v.1.15,2013-03-02 11:19:00,
2013-03-02 05:24:00,36.5,27.6,30.36,NW,324,8.0,9.0,70,0.00,,,0.00,Wunderground v.1.15,2013-03-02 11:24:00,
2013-03-02 05:29:00,36.3,27.4,30.36,NW,324,9.0,9.0,70,0.00,,,0.00,Wunderground v.1.15,2013-03-02 11:29:00,
2013-03-02 05:34:00,36.1,27.6,30.37,NW,313,9.0,9.0,71,0.00,,,0.00,Wunderground v.1.15,2013-03-02 11:34:00,
2013-03-02 05:39:00,35.8,27.3,30.36,NW,312,9.0,10.0,71,0.00,,,0.00,Wunderground v.1.15,2013-03-02 11:39:00,
2013-03-02 05:44:00,35.7,27.2,30.36,NW,326,9.0,9.0,71,0.00,,,0.00,Wunderground v.1.15,2013-03-02 11:44:00,
2013-03-02 05:54:00,34.8,27.0,30.37,NW,322,8.0,8.0,73,0.00,,,0.00,Wunderground v.1.15,2013-03-02 11:54:00,
2013-03-02 05:59:00,34.4,27.0,30.37,NW,318,7.0,9.0,74,0.00,,,0.00,Wunderground v.1.15,2013-03-02 11:59:00,
2013-03-02 06:04:00,34.3,26.9,30.37,NNW,329,8.0,8.0,74,0.00,,,0.00,Wunderground v.1.15,2013-03-02 12:04:00,
2013-03-02 06:09:00,34.2,27.1,30.37,NW,324,9.0,10.0,75,0.00,,,0.00,Wunderground v.1.15,2013-03-02 12:09:00,
2013-03-02 06:14:00,34.0,26.9,30.37,NW,326,9.0,9.0,75,0.00,,,0.00,Wunderground v.1.15,2013-03-02 12:14:00,
2013-03-02 06:19:00,33.7,26.9,30.37,NW,322,9.0,11.0,76,0.00,,,0.00,Wunderground v.1.15,2013-03-02 12:19:00,
2013-03-02 06:24:00,33.5,26.7,30.37,NW,317,9.0,9.0,76,0.00,,,0.00,Wunderground v.1.15,2013-03-02 12:24:00,
2013-03-02 06:29:00,33.3,26.9,30.38,WNW,300,9.0,9.0,77,0.00,,,0.00,Wunderground v.1.15,2013-03-02 12:29:00,
2013-03-02 06:34:00,33.2,26.8,30.38,WNW,303,9.0,9.0,77,0.00,,,0.00,Wunderground v.1.15,2013-03-02 12:34:00,
2013-03-02 06:39:00,33.1,26.7,30.38,NW,317,9.0,9.0,77,0.00,,,0.00,Wunderground v.1.15,2013-03-02 12:39:00,
2013-03-02 06:44:00,33.0,26.9,30.38,NNW,327,9.0,10.0,78,0.00,,,0.00,Wunderground v.1.15,2013-03-02 12:44:00,
2013-03-02 06:54:00,32.8,26.7,30.39,NW,315,11.0,11.0,78,0.00,,,0.00,Wunderground v.1.15,2013-03-02 12:54:00,
2013-03-02 07:04:00,32.0,26.2,30.39,WNW,301,9.0,9.0,79,0.00,,,0.00,Wunderground v.1.15,2013-03-02 13:04:00,
2013-03-02 07:09:00,31.6,26.1,30.39,WNW,302,8.0,9.0,80,0.00,,,0.00,Wunderground v.1.15,2013-03-02 13:09:00,
2013-03-02 07:14:00,31.5,26.3,30.39,NW,307,9.0,11.0,81,0.00,,,0.00,Wunderground v.1.15,2013-03-02 13:14:00,
2013-03-02 07:19:00,31.7,26.5,30.40,NW,305,9.0,11.0,81,0.00,,,0.00,Wunderground v.1.15,2013-03-02 13:19:00,
2013-03-02 07:29:00,32.8,27.0,30.40,NW,318,12.0,16.0,79,0.00,,,0.00,Wunderground v.1.15,2013-03-02 13:29:00,
2013-03-02 07:34:00,33.3,27.2,30.40,NW,305,13.0,14.0,78,0.00,,,0.00,Wunderground v.1.15,2013-03-02 13:34:00,
2013-03-02 07:39:00,33.4,27.3,30.41,WNW,303,13.0,14.0,78,0.00,,,0.00,Wunderground v.1.15,2013-03-02 13:39:00,
2013-03-02 07:44:00,33.5,27.4,30.41,NW,322,13.0,16.0,78,0.00,,,0.00,Wunderground v.1.15,2013-03-02 13:44:00,
2013-03-02 07:49:00,33.8,27.0,30.41,NW,317,14.0,16.0,76,0.00,,,0.00,Wunderground v.1.15,2013-03-02 13:49:00,
2013-03-02 07:54:00,34.1,26.7,30.41,NW,310,15.0,22.0,74,0.00,,,0.00,Wunderground v.1.15,2013-03-02 13:54:00,
2013-03-02 08:04:00,34.7,27.3,30.41,NNW,333,16.0,16.0,74,0.00,,,0.00,Wunderground v.1.15,2013-03-02 14:04:00,
2013-03-02 08:09:00,35.1,27.6,30.41,NW,319,15.0,16.0,74,0.00,,,0.00,Wunderground v.1.15,2013-03-02 14:09:00,
2013-03-02 08:14:00,35.3,27.5,30.42,NNW,330,14.0,15.0,73,0.00,,,0.00,Wunderground v.1.15,2013-03-02 14:14:00,
2013-03-02 08:19:00,35.7,27.9,30.42,NW,320,14.0,15.0,73,0.00,,,0.00,Wunderground v.1.15,2013-03-02 14:19:00,
2013-03-02 08:24:00,35.9,27.7,30.42,NW,323,13.0,16.0,72,0.00,,,0.00,Wunderground v.1.15,2013-03-02 14:24:00,
2013-03-02 08:34:00,36.3,28.1,30.42,NW,321,16.0,16.0,72,0.00,,,0.00,Wunderground v.1.15,2013-03-02 14:34:00,
2013-03-02 08:39:00,36.5,28.0,30.42,NW,325,16.0,16.0,71,0.00,,,0.00,Wunderground v.1.15,2013-03-02 14:39:00,
2013-03-02 08:44:00,36.9,28.0,30.42,North,349,16.0,18.0,70,0.00,,,0.00,Wunderground v.1.15,2013-03-02 14:44:00,
2013-03-02 08:49:00,37.1,28.2,30.42,NNW,327,16.0,21.0,70,0.00,,,0.00,Wunderground v.1.15,2013-03-02 14:49:00,
2013-03-02 08:54:00,37.1,28.6,30.43,NW,324,17.0,17.0,71,0.00,,,0.00,Wunderground v.1.15,2013-03-02 14:54:00,
2013-03-02 09:04:00,37.7,28.4,30.43,WNW,300,16.0,16.0,69,0.00,,,0.00,Wunderground v.1.15,2013-03-02 15:04:00,
2013-03-02 09:09:00,37.9,28.3,30.43,NW,326,16.0,16.0,68,0.00,,,0.00,Wunderground v.1.15,2013-03-02 15:09:00,
2013-03-02 09:14:00,38.3,28.3,30.43,NNW,329,16.0,18.0,67,0.00,,,0.00,Wunderground v.1.15,2013-03-02 15:14:00,
2013-03-02 09:19:00,38.6,27.8,30.43,NNW,336,16.0,18.0,65,0.00,,,0.00,Wunderground v.1.15,2013-03-02 15:19:00,
2013-03-02 09:24:00,38.9,28.1,30.43,NW,309,16.0,16.0,65,0.00,,,0.00,Wunderground v.1.15,2013-03-02 15:24:00,
2013-03-02 09:29:00,39.5,27.9,30.43,North,350,15.0,16.0,63,0.00,,,0.00,Wunderground v.1.15,2013-03-02 15:29:00,
2013-03-02 09:34:00,39.7,26.9,30.43,NW,317,15.0,16.0,60,0.00,,,0.00,Wunderground v.1.15,2013-03-02 15:34:00,
2013-03-02 09:39:00,40.1,27.3,30.43,NNW,333,15.0,16.0,60,0.00,,,0.00,Wunderground v.1.15,2013-03-02 15:39:00,
2013-03-02 09:44:00,40.6,27.0,30.43,NNW,333,15.0,15.0,58,0.00,,,0.00,Wunderground v.1.15,2013-03-02 15:44:00,
2013-03-02 09:49:00,40.9,26.8,30.43,NW,324,15.0,17.0,57,0.00,,,0.00,Wunderground v.1.15,2013-03-02 15:49:00,
2013-03-02 09:54:00,41.0,27.3,30.43,NW,319,15.0,15.0,58,0.00,,,0.00,Wunderground v.1.15,2013-03-02 15:54:00,
2013-03-02 10:04:00,41.3,26.8,30.43,NW,318,14.0,14.0,56,0.00,,,0.00,Wunderground v.1.15,2013-03-02 16:04:00,
2013-03-02 10:09:00,42.0,27.0,30.43,WNW,303,13.0,15.0,55,0.00,,,0.00,Wunderground v.1.15,2013-03-02 16:09:00,
2013-03-02 10:14:00,42.2,27.6,30.43,North,357,13.0,13.0,56,0.00,,,0.00,Wunderground v.1.15,2013-03-02 16:14:00,
2013-03-02 10:19:00,42.6,26.6,30.42,NW,324,14.0,14.0,53,0.00,,,0.00,Wunderground v.1.15,2013-03-02 16:19:00,
2013-03-02 10:24:00,42.9,26.9,30.43,NNW,328,14.0,14.0,53,0.00,,,0.00,Wunderground v.1.15,2013-03-02 16:24:00,
2013-03-02 10:29:00,43.0,26.6,30.43,NW,316,14.0,14.0,52,0.00,,,0.00,Wunderground v.1.15,2013-03-02 16:29:00,
2013-03-02 10:39:00,43.6,26.2,30.42,NNW,329,13.0,13.0,50,0.00,,,0.00,Wunderground v.1.15,2013-03-02 16:39:00,
2013-03-02 10:44:00,44.0,25.5,30.42,NW,306,13.0,13.0,48,0.00,,,0.00,Wunderground v.1.15,2013-03-02 16:44:00,
2013-03-02 10:49:00,44.1,26.1,30.42,NW,306,13.0,17.0,49,0.00,,,0.00,Wunderground v.1.15,2013-03-02 16:49:00,
2013-03-02 10:54:00,44.4,25.9,30.42,WNW,287,16.0,16.0,48,0.00,,,0.00,Wunderground v.1.15,2013-03-02 16:54:00,
2013-03-02 11:04:00,45.2,25.1,30.42,WNW,303,14.0,16.0,45,0.00,,,0.00,Wunderground v.1.15,2013-03-02 17:04:00,
2013-03-02 11:09:00,45.4,25.3,30.42,NW,306,15.0,16.0,45,0.00,,,0.00,Wunderground v.1.15,2013-03-02 17:09:00,
2013-03-02 11:19:00,46.4,25.1,30.42,WNW,303,15.0,17.0,43,0.00,,,0.00,Wunderground v.1.15,2013-03-02 17:19:00,
2013-03-02 11:24:00,46.9,25.0,30.41,NW,314,16.0,17.0,42,0.00,,,0.00,Wunderground v.1.15,2013-03-02 17:24:00,
2013-03-02 11:29:00,46.8,22.5,30.41,WNW,303,18.0,20.0,38,0.00,,,0.00,Wunderground v.1.15,2013-03-02 17:29:00,
2013-03-02 11:34:00,47.2,22.9,30.41,NW,307,18.0,18.0,38,0.00,,,0.00,Wunderground v.1.15,2013-03-02 17:34:00,
2013-03-02 11:44:00,47.5,23.1,30.41,NNW,330,16.0,19.0,38,0.00,,,0.00,Wunderground v.1.15,2013-03-02 17:44:00,
2013-03-02 11:49:00,47.9,24.1,30.40,NW,305,15.0,19.0,39,0.00,,,0.00,Wunderground v.1.15,2013-03-02 17:49:00,
2013-03-02 11:54:00,48.3,24.5,30.40,NNW,331,15.0,18.0,39,0.00,,,0.00,Wunderground v.1.15,2013-03-02 17:54:00,
2013-03-02 12:04:00,48.4,22.6,30.40,WNW,303,16.0,16.0,36,0.00,,,0.00,Wunderground v.1.15,2013-03-02 18:04:00,
2013-03-02 12:09:00,48.6,21.5,30.40,NW,324,16.0,16.0,34,0.00,,,0.00,Wunderground v.1.15,2013-03-02 18:09:00,
2013-03-02 12:14:00,48.7,22.2,30.40,NW,305,15.0,15.0,35,0.00,,,0.00,Wunderground v.1.15,2013-03-02 18:14:00,
2013-03-02 12:19:00,49.3,22.1,30.39,NW,312,14.0,19.0,34,0.00,,,0.00,Wunderground v.1.15,2013-03-02 18:19:00,
2013-03-02 12:24:00,49.0,23.2,30.39,NW,307,14.0,14.0,36,0.00,,,0.00,Wunderground v.1.15,2013-03-02 18:24:00,
2013-03-02 12:29:00,49.3,22.8,30.39,WNW,300,14.0,14.0,35,0.00,,,0.00,Wunderground v.1.15,2013-03-02 18:29:00,
2013-03-02 12:34:00,50.0,22.7,30.38,NW,321,13.0,20.0,34,0.00,,,0.00,Wunderground v.1.15,2013-03-02 18:34:00,
2013-03-02 12:44:00,50.2,22.9,30.38,WNW,298,15.0,15.0,34,0.00,,,0.00,Wunderground v.1.15,2013-03-02 18:44:00,
2013-03-02 12:49:00,50.0,22.7,30.37,NW,319,16.0,16.0,34,0.00,,,0.00,Wunderground v.1.15,2013-03-02 18:49:00,
2013-03-02 12:54:00,50.1,22.1,30.36,NW,321,16.0,16.0,33,0.00,,,0.00,Wunderground v.1.15,2013-03-02 18:54:00,
2013-03-02 13:04:00,51.2,23.8,30.36,NNW,333,14.0,15.0,34,0.00,,,0.00,Wunderground v.1.15,2013-03-02 19:04:00,
2013-03-02 13:09:00,51.3,23.1,30.35,NW,321,14.0,15.0,33,0.00,,,0.00,Wunderground v.1.15,2013-03-02 19:09:00,
2013-03-02 13:19:00,51.4,23.2,30.35,West,279,14.0,22.0,33,0.00,,,0.00,Wunderground v.1.15,2013-03-02 19:19:00,
2013-03-02 13:24:00,51.7,23.5,30.35,NW,312,15.0,15.0,33,0.00,,,0.00,Wunderground v.1.15,2013-03-02 19:24:00,
2013-03-02 13:34:00,52.0,23.8,30.34,WNW,300,12.0,13.0,33,0.00,,,0.00,Wunderground v.1.15,2013-03-02 19:34:00,
2013-03-02 13:44:00,52.6,24.3,30.33,NW,310,15.0,16.0,33,0.00,,,0.00,Wunderground v.1.15,2013-03-02 19:44:00,
2013-03-02 13:49:00,52.2,23.9,30.33,NW,313,14.0,16.0,33,0.00,,,0.00,Wunderground v.1.15,2013-03-02 19:49:00,
2013-03-02 13:54:00,52.9,23.8,30.33,NW,306,13.0,13.0,32,0.00,,,0.00,Wunderground v.1.15,2013-03-02 19:54:00,
2013-03-02 14:04:00,53.1,24.0,30.32,NW,318,14.0,15.0,32,0.00,,,0.00,Wunderground v.1.15,2013-03-02 20:04:00,
2013-03-02 14:09:00,53.7,25.2,30.32,NW,326,13.0,15.0,33,0.00,,,0.00,Wunderground v.1.15,2013-03-02 20:09:00,
2013-03-02 14:14:00,54.1,24.1,30.32,WNW,299,13.0,20.0,31,0.00,,,0.00,Wunderground v.1.15,2013-03-02 20:14:00,
2013-03-02 14:24:00,54.4,23.6,30.31,WNW,289,15.0,15.0,30,0.00,,,0.00,Wunderground v.1.15,2013-03-02 20:24:00,
2013-03-02 14:29:00,54.7,25.4,30.31,WNW,294,14.0,15.0,32,0.00,,,0.00,Wunderground v.1.15,2013-03-02 20:29:00,
2013-03-02 14:34:00,54.6,24.5,30.31,West,275,14.0,14.0,31,0.00,,,0.00,Wunderground v.1.15,2013-03-02 20:34:00,
2013-03-02 14:39:00,54.7,25.4,30.30,NW,323,13.0,14.0,32,0.00,,,0.00,Wunderground v.1.15,2013-03-02 20:39:00,
2013-03-02 14:44:00,54.5,25.2,30.31,NNW,330,14.0,14.0,32,0.00,,,0.00,Wunderground v.1.15,2013-03-02 20:44:00,
2013-03-02 14:49:00,54.9,25.6,30.30,WNW,290,14.0,14.0,32,0.00,,,0.00,Wunderground v.1.15,2013-03-02 20:49:00,
2013-03-02 14:54:00,54.9,24.8,30.30,NW,310,12.0,12.0,31,0.00,,,0.00,Wunderground v.1.15,2013-03-02 20:54:00,
2013-03-02 15:04:00,55.7,26.3,30.30,NW,309,12.0,12.0,32,0.00,,,0.00,Wunderground v.1.15,2013-03-02 21:04:00,
2013-03-02 15:09:00,55.9,26.4,30.30,WNW,295,13.0,15.0,32,0.00,,,0.00,Wunderground v.1.15,2013-03-02 21:09:00,
2013-03-02 15:14:00,55.9,26.4,30.29,WNW,299,14.0,17.0,32,0.00,,,0.00,Wunderground v.1.15,2013-03-02 21:14:00,
2013-03-02 15:24:00,56.2,26.7,30.29,NW,319,14.0,14.0,32,0.00,,,0.00,Wunderground v.1.15,2013-03-02 21:24:00,
2013-03-02 15:29:00,56.2,27.4,30.28,NW,314,14.0,14.0,33,0.00,,,0.00,Wunderground v.1.15,2013-03-02 21:29:00,
2013-03-02 15:34:00,56.2,27.4,30.28,WNW,297,11.0,11.0,33,0.00,,,0.00,Wunderground v.1.15,2013-03-02 21:34:00,
2013-03-02 15:39:00,56.7,27.1,30.28,WNW,285,10.0,14.0,32,0.00,,,0.00,Wunderground v.1.15,2013-03-02 21:39:00,
2013-03-02 15:44:00,56.4,27.6,30.28,WNW,299,11.0,12.0,33,0.00,,,0.00,Wunderground v.1.15,2013-03-02 21:44:00,
2013-03-02 15:54:00,57.4,27.7,30.27,WNW,282,10.0,12.0,32,0.00,,,0.00,Wunderground v.1.15,2013-03-02 21:54:00,
2013-03-02 16:04:00,57.2,27.6,30.27,North,1,13.0,13.0,32,0.00,,,0.00,Wunderground v.1.15,2013-03-02 22:04:00,
2013-03-02 16:09:00,57.4,27.7,30.27,WNW,299,13.0,18.0,32,0.00,,,0.00,Wunderground v.1.15,2013-03-02 22:09:00,
2013-03-02 16:14:00,57.6,27.9,30.27,WNW,298,14.0,15.0,32,0.00,,,0.00,Wunderground v.1.15,2013-03-02 22:14:00,
2013-03-02 16:19:00,57.8,28.1,30.26,NW,322,14.0,15.0,32,0.00,,,0.00,Wunderground v.1.15,2013-03-02 22:19:00,
2013-03-02 16:29:00,57.8,27.3,30.26,WNW,299,12.0,12.0,31,0.00,,,0.00,Wunderground v.1.15,2013-03-02 22:29:00,
2013-03-02 16:34:00,57.8,27.3,30.26,NNW,338,12.0,12.0,31,0.00,,,0.00,Wunderground v.1.15,2013-03-02 22:34:00,
2013-03-02 16:39:00,57.9,28.2,30.26,WNW,300,11.0,12.0,32,0.00,,,0.00,Wunderground v.1.15,2013-03-02 22:39:00,
2013-03-02 16:44:00,58.1,27.6,30.26,WNW,296,11.0,11.0,31,0.00,,,0.00,Wunderground v.1.15,2013-03-02 22:44:00,
2013-03-02 16:49:00,58.3,27.0,30.26,WNW,286,10.0,11.0,30,0.00,,,0.00,Wunderground v.1.15,2013-03-02 22:49:00,
2013-03-02 16:54:00,58.3,27.8,30.26,West,275,10.0,10.0,31,0.00,,,0.00,Wunderground v.1.15,2013-03-02 22:54:00,
2013-03-02 17:04:00,58.8,28.2,30.25,NW,324,7.0,11.0,31,0.00,,,0.00,Wunderground v.1.15,2013-03-02 23:04:00,
2013-03-02 17:09:00,58.6,28.0,30.26,WNW,284,9.0,11.0,31,0.00,,,0.00,Wunderground v.1.15,2013-03-02 23:09:00,
2013-03-02 17:14:00,58.6,28.0,30.25,WNW,303,11.0,11.0,31,0.00,,,0.00,Wunderground v.1.15,2013-03-02 23:14:00,
2013-03-02 17:19:00,58.6,28.0,30.26,NW,314,11.0,11.0,31,0.00,,,0.00,Wunderground v.1.15,2013-03-02 23:19:00,
2013-03-02 17:24:00,58.7,28.1,30.26,WNW,296,10.0,10.0,31,0.00,,,0.00,Wunderground v.1.15,2013-03-02 23:24:00,
2013-03-02 17:29:00,58.8,28.2,30.26,NNW,335,8.0,10.0,31,0.00,,,0.00,Wunderground v.1.15,2013-03-02 23:29:00,
2013-03-02 17:34:00,59.0,28.4,30.26,NW,323,8.0,9.0,31,0.00,,,0.00,Wunderground v.1.15,2013-03-02 23:34:00,
2013-03-02 17:39:00,59.0,28.4,30.26,NW,311,8.0,9.0,31,0.00,,,0.00,Wunderground v.1.15,2013-03-02 23:39:00,
2013-03-02 17:44:00,58.8,28.2,30.26,WNW,299,9.0,9.0,31,0.00,,,0.00,Wunderground v.1.15,2013-03-02 23:44:00,
2013-03-02 17:49:00,58.7,28.1,30.26,WNW,298,9.0,9.0,31,0.00,,,0.00,Wunderground v.1.15,2013-03-02 23:49:00,
2013-03-02 17:59:00,58.6,28.0,30.25,WNW,282,8.0,9.0,31,0.00,,,0.00,Wunderground v.1.15,2013-03-02 23:59:00,
2013-03-02 18:04:00,58.6,28.8,30.25,West,276,6.0,6.0,32,0.00,,,0.00,Wunderground v.1.15,2013-03-03 00:04:00,
2013-03-02 18:09:00,58.3,28.5,30.25,WNW,284,5.0,6.0,32,0.00,,,0.00,Wunderground v.1.15,2013-03-03 00:09:00,
2013-03-02 18:14:00,58.0,28.3,30.25,WNW,303,5.0,5.0,32,0.00,,,0.00,Wunderground v.1.15,2013-03-03 00:14:00,
2013-03-02 18:19:00,57.6,28.7,30.26,NW,309,4.0,5.0,33,0.00,,,0.00,Wunderground v.1.15,2013-03-03 00:19:00,
2013-03-02 18:24:00,57.3,28.4,30.26,NW,304,3.0,3.0,33,0.00,,,0.00,Wunderground v.1.15,2013-03-03 00:24:00,
2013-03-02 18:34:00,56.5,28.4,30.26,NW,319,3.0,3.0,34,0.00,,,0.00,Wunderground v.1.15,2013-03-03 00:34:00,
2013-03-02 18:39:00,56.5,28.4,30.26,NW,317,3.0,3.0,34,0.00,,,0.00,Wunderground v.1.15,2013-03-03 00:39:00,
2013-03-02 18:44:00,56.2,28.9,30.26,NW,319,3.0,3.0,35,0.00,,,0.00,Wunderground v.1.15,2013-03-03 00:44:00,
2013-03-02 18:49:00,55.6,28.4,30.26,NNW,338,3.0,3.0,35,0.00,,,0.00,Wunderground v.1.15,2013-03-03 00:49:00,
2013-03-02 18:54:00,54.3,28.6,30.26,NNW,338,2.0,2.0,37,0.00,,,0.00,Wunderground v.1.15,2013-03-03 00:54:00,
2013-03-02 19:04:00,54.2,28.5,30.26,NNW,338,1.0,1.0,37,0.00,,,0.00,Wunderground v.1.15,2013-03-03 01:04:00,
2013-03-02 19:09:00,53.5,28.5,30.26,NNW,339,1.0,1.0,38,0.00,,,0.00,Wunderground v.1.15,2013-03-03 01:09:00,
2013-03-02 19:14:00,53.0,28.7,30.26,NNW,338,1.0,1.0,39,0.00,,,0.00,Wunderground v.1.15,2013-03-03 01:14:00,
2013-03-02 19:19:00,52.5,28.2,30.26,NNW,338,0.0,1.0,39,0.00,,,0.00,Wunderground v.1.15,2013-03-03 01:19:00,
2013-03-02 19:24:00,52.2,28.6,30.26,NNW,339,0.0,0.0,40,0.00,,,0.00,Wunderground v.1.15,2013-03-03 01:24:00,
2013-03-02 19:29:00,52.4,28.8,30.26,NNW,338,0.0,0.0,40,0.00,,,0.00,Wunderground v.1.15,2013-03-03 01:29:00,
2013-03-02 19:39:00,51.4,27.9,30.26,NNW,339,0.0,0.0,40,0.00,,,0.00,Wunderground v.1.15,2013-03-03 01:39:00,
2013-03-02 19:44:00,50.9,28.0,30.26,NNW,338,0.0,0.0,41,0.00,,,0.00,Wunderground v.1.15,2013-03-03 01:44:00,
2013-03-02 19:49:00,51.0,28.7,30.26,NNW,338,0.0,0.0,42,0.00,,,0.00,Wunderground v.1.15,2013-03-03 01:49:00,
2013-03-02 19:54:00,51.4,28.5,30.26,NNW,339,0.0,1.0,41,0.00,,,0.00,Wunderground v.1.15,2013-03-03 01:54:00,
2013-03-02 19:59:00,51.4,27.9,30.26,NNW,338,1.0,4.0,40,0.00,,,0.00,Wunderground v.1.15,2013-03-03 01:59:00,
2013-03-02 20:04:00,51.1,28.2,30.26,NNW,338,1.0,1.0,41,0.00,,,0.00,Wunderground v.1.15,2013-03-03 02:04:00,
2013-03-02 20:14:00,50.7,27.8,30.26,NNW,339,0.0,4.0,41,0.00,,,0.00,Wunderground v.1.15,2013-03-03 02:14:00,
2013-03-02 20:19:00,50.5,27.7,30.26,NNW,338,0.0,4.0,41,0.00,,,0.00,Wunderground v.1.15,2013-03-03 02:19:00,
2013-03-02 20:24:00,50.5,27.7,30.26,NNW,339,0.0,4.0,41,0.00,,,0.00,Wunderground v.1.15,2013-03-03 02:24:00,
2013-03-02 20:29:00,50.3,27.5,30.26,NNW,338,0.0,4.0,41,0.00,,,0.00,Wunderground v.1.15,2013-03-03 02:29:00,
2013-03-02 20:34:00,50.0,27.8,30.26,NNW,338,0.0,4.0,42,0.00,,,0.00,Wunderground v.1.15,2013-03-03 02:34:00,
2013-03-02 20:44:00,48.9,27.9,30.26,NNW,338,0.0,4.0,44,0.00,,,0.00,Wunderground v.1.15,2013-03-03 02:44:00,
2013-03-02 20:49:00,48.8,27.8,30.26,NNW,338,1.0,4.0,44,0.00,,,0.00,Wunderground v.1.15,2013-03-03 02:49:00,
2013-03-02 20:54:00,48.9,27.9,30.26,South,182,2.0,4.0,44,0.00,,,0.00,Wunderground v.1.15,2013-03-03 02:54:00,
2013-03-02 20:59:00,48.8,27.8,30.26,South,184,2.0,4.0,44,0.00,,,0.00,Wunderground v.1.15,2013-03-03 02:59:00,
2013-03-02 21:04:00,48.9,27.9,30.26,SSW,193,2.0,4.0,44,0.00,,,0.00,Wunderground v.1.15,2013-03-03 03:04:00,
2013-03-02 21:09:00,49.1,28.1,30.26,SSW,193,2.0,4.0,44,0.00,,,0.00,Wunderground v.1.15,2013-03-03 03:09:00,
2013-03-02 21:14:00,48.9,27.9,30.26,South,191,2.0,4.0,44,0.00,,,0.00,Wunderground v.1.15,2013-03-03 03:14:00,
2013-03-02 21:19:00,48.7,27.7,30.26,SSW,193,2.0,4.0,44,0.00,,,0.00,Wunderground v.1.15,2013-03-03 03:19:00,
2013-03-02 21:24:00,48.0,27.6,30.26,SSW,193,2.0,2.0,45,0.00,,,0.00,Wunderground v.1.15,2013-03-03 03:24:00,
2013-03-02 21:29:00,47.3,27.5,30.26,South,184,1.0,4.0,46,0.00,,,0.00,Wunderground v.1.15,2013-03-03 03:29:00,
2013-03-02 21:34:00,46.7,27.5,30.26,South,184,1.0,4.0,47,0.00,,,0.00,Wunderground v.1.15,2013-03-03 03:34:00,
2013-03-02 21:39:00,46.7,28.0,30.26,SSE,147,1.0,4.0,48,0.00,,,0.00,Wunderground v.1.15,2013-03-03 03:39:00,
2013-03-02 21:49:00,46.6,27.4,30.26,SE,146,2.0,3.0,47,0.00,,,0.00,Wunderground v.1.15,2013-03-03 03:49:00,
2013-03-02 21:54:00,46.5,27.8,30.26,SE,140,3.0,4.0,48,0.00,,,0.00,Wunderground v.1.15,2013-03-03 03:54:00,
2013-03-02 21:59:00,46.8,27.6,30.26,SE,132,4.0,4.0,47,0.00,,,0.00,Wunderground v.1.15,2013-03-03 03:59:00,
2013-03-02 22:04:00,46.8,27.6,30.26,SE,128,4.0,4.0,47,0.00,,,0.00,Wunderground v.1.15,2013-03-03 04:04:00,
2013-03-02 22:09:00,46.6,27.4,30.26,ESE,119,4.0,4.0,47,0.00,,,0.00,Wunderground v.1.15,2013-03-03 04:09:00,
2013-03-02 22:19:00,45.8,27.2,30.26,SE,132,4.0,4.0,48,0.00,,,0.00,Wunderground v.1.15,2013-03-03 04:19:00,
2013-03-02 22:24:00,45.4,27.3,30.26,SE,132,3.0,3.0,49,0.00,,,0.00,Wunderground v.1.15,2013-03-03 04:24:00,
2013-03-02 22:29:00,45.0,27.5,30.27,SE,146,3.0,5.0,50,0.00,,,0.00,Wunderground v.1.15,2013-03-03 04:29:00,
2013-03-02 22:34:00,44.8,27.3,30.26,SSE,147,4.0,6.0,50,0.00,,,0.00,Wunderground v.1.15,2013-03-03 04:34:00,
2013-03-02 22:39:00,44.4,26.9,30.26,SE,132,6.0,6.0,50,0.00,,,0.00,Wunderground v.1.15,2013-03-03 04:39:00,
2013-03-02 22:44:00,44.2,26.7,30.26,SE,140,5.0,5.0,50,0.00,,,0.00,Wunderground v.1.15,2013-03-03 04:44:00,
2013-03-02 22:54:00,44.0,26.0,30.26,SE,140,5.0,6.0,49,0.00,,,0.00,Wunderground v.1.15,2013-03-03 04:54:00,
2013-03-02 22:59:00,44.0,25.5,30.26,SE,132,6.0,6.0,48,0.00,,,0.00,Wunderground v.1.15,2013-03-03 04:59:00,
2013-03-02 23:04:00,44.0,25.5,30.26,SE,133,6.0,6.0,48,0.00,,,0.00,Wunderground v.1.15,2013-03-03 05:04:00,
2013-03-02 23:09:00,43.6,25.7,30.26,SE,138,6.0,6.0,49,0.00,,,0.00,Wunderground v.1.15,2013-03-03 05:09:00,
2013-03-02 23:14:00,43.5,25.6,30.26,SE,141,5.0,6.0,49,0.00,,,0.00,Wunderground v.1.15,2013-03-03 05:14:00,
2013-03-02 23:19:00,43.4,25.5,30.25,SE,134,6.0,6.0,49,0.00,,,0.00,Wunderground v.1.15,2013-03-03 05:19:00,
2013-03-02 23:24:00,42.9,25.5,30.26,SE,141,5.0,6.0,50,0.00,,,0.00,Wunderground v.1.15,2013-03-03 05:24:00,
2013-03-02 23:29:00,42.5,25.6,30.26,SSE,149,6.0,6.0,51,0.00,,,0.00,Wunderground v.1.15,2013-03-03 05:29:00,
2013-03-02 23:34:00,42.2,25.8,30.25,SE,132,6.0,6.0,52,0.00,,,0.00,Wunderground v.1.15,2013-03-03 05:34:00,
2013-03-02 23:39:00,41.9,26.0,30.26,SSE,149,5.0,6.0,53,0.00,,,0.00,Wunderground v.1.15,2013-03-03 05:39:00,
2013-03-02 23:44:00,41.8,25.9,30.26,SE,137,5.0,5.0,53,0.00,,,0.00,Wunderground v.1.15,2013-03-03 05:44:00,
2013-03-02 23:49:00,41.7,25.8,30.25,SE,141,5.0,5.0,53,0.00,,,0.00,Wunderground v.1.15,2013-03-03 05:49:00,
2013-03-02 23:54:00,41.6,25.7,30.25,SE,144,5.0,7.0,53,0.00,,,0.00,Wunderground v.1.15,2013-03-03 05:54:00,